Other Surface Observations
Issued by NWS

Home | Current Version | Previous Version | Text Only | Print | Product List | Glossary On
Versions: 1 2 3 4 5 6 7 8 9 10 11 12 13 14 15 16 17 18 19 20 21 22 23 24 25 26 27 28 29 30 31 32 33 34 35 36 37 38 39 40 41 42 43 44 45 46 47 48 49 50
000
SXUS52 KTAE 210005
OSOTAE
OSOTAE
North Florida/South Alabama/Southwest Georgia Weather Roundup
National Weather Service Tallahassee Florida
700 PM EST SAT DEC 20 2014

Note: "fair" indicates few or no clouds below 12,000 feet with no
significant weather and/or obstructions to visibility.

!FLZ017-115-028-034-025-210100
...North Florida...

CITY           SKY/WX    TMP DP  RH WIND       PRES   REMARKS
TALLAHASSEE    CLOUDY    59  50  72 N6        30.10R
APALACHICOLA   CLOUDY    62  52  69 NE9       30.06S
PERRY          CLOUDY    62  52  71 NE5       30.10R
CROSS CITY       N/A     67  57  70 E6        30.08R
JACKSONVILLE   CLOUDY    57  55  93 NE9       30.13R
$$

!FLZ112-006-005-002-011-210100
...Florida Panhandle...

CITY           SKY/WX    TMP DP  RH WIND       PRES   REMARKS
MARIANNA       CLOUDY    53  53 100 NE6       30.12S
BONIFAY        NOT AVBL
PANAMA CITY NW LGT RAIN  54  51  90 N10       30.08S
TYNDALL AFB    CLOUDY    55  52  88 NE8       30.09R
TYND DRONE APT LGT RAIN  55  54  96 NE13      30.07R
DE FUNIAK SPR  CLOUDY    52  50  93 NE8       30.11R
EGLIN AFB      NOT AVBL
DESTIN         CLOUDY    55  52  89 NE7       30.10R
HURLBURT       CLOUDY    53  49  86 NE8       30.10R
CRESTVIEW      CLOUDY    53  49  86 N7        30.12S
PENSACOLA      MOCLDY    51  49  92 N8        30.10R
$$

!ALZ063-066-210100
...South Alabama...

CITY           SKY/WX    TMP DP  RH WIND       PRES   REMARKS
DOTHAN         LGT RAIN  53  50  89 N8        30.16R
OZARK CAIRNS   CLOUDY    53  48  83 NE9       30.13R
FT RUCKER HELI CLOUDY    53  49  86 NE6       30.13R
RUCKER HELI 3  MOCLDY    52  49  90 N7        30.16R
RUCKER HELI 2  CLOUDY    53  48  83 NE9       30.13R
FLORALA APT    CLOUDY    53  48  83 N7        30.13S
ANDALUSIA      CLOUDY    55  48  77 NE5       30.13R
TROY           CLOUDY    51  49  92 N6        30.16R
EUFALA         CLOUDY    52  50  93 CALM      30.15R
MOBILE         CLOUDY    49  48  97 N10       30.14R WCI  45
$$

!GAZ120>161-210100
...Southwest and South Central Georgia...

CITY           SKY/WX    TMP DP  RH WIND       PRES   REMARKS
THOMASVILLE    RAIN      55  55 100 NE6       30.14R
BAINBRIDGE     MOCLDY    59  54  82 N8        30.12F
MOODY AFB      LGT RAIN  55  50  82 NE3       30.13R
VALDOSTA       CLOUDY    57  49  74 NE9       30.13R
MOULTRIE       CLOUDY    55  52  88 NE6       30.14R
BLAKELY        DRIZZLE   57  54  88 NE5       30.15R
ALBANY         CLOUDY    55  51  86 NE6       30.17R
TIFTON         CLOUDY    55  50  86 CALM      30.15R
FITZGERALD     CLOUDY    56  52  88 CALM      30.18R
CORDELE        CLOUDY    56  51  84 NE5       30.17R
AMERICUS       CLOUDY    52  52 100 NE6       30.18R
HOMERVILLE     CLOUDY    57  54  88 CALM      30.14S
$$

!GMZ750-755-770-775-210100
...Coastal and Buoy Obs...

STATION/POSITION TIME  TEMP    WIND        PRES    VSBY  WAVE
                       AIR SEA DIR/SP/G                  HT/PER
                 (UTC) (F)     (DEG/KT/KT) (MB)    (MI)  (FT/S)
KEATON BEACH     0000   62      CALM  /  1 1018.9R
CEDAR KEY        2300   65     360/  3/  3 1018.6R
C TOWER          0000   62      60/ 18/ 19 1017.5R
APALACHICOLA BUO 2300   71 71  180/  8/ 10 1016.6R         2/ 4
PANAMA CITY BUOY 2245   72 75  130/ 12/ 19 1015.7S         5/ 6
MOBILE BUOY      0000   64 74   40/ 19/ 23 1017.2R         7/ 6
ORANGE BCH AL BU 2300   57 69   30/ 17/ 21 1017.7R         4/ 6
$$



USA.gov is the U.S. government's official web portal to all federal, state and local government web resources and services.